TimeCDT,TemperatureF,Dew PointF,Humidity,Sea Level PressureIn,VisibilityMPH,Wind Direction,Wind SpeedMPH,Gust SpeedMPH,PrecipitationIn,Events,Conditions,WindDirDegrees,DateUTC
12:53 AM,75.0,71.1,87,29.84,10.0,Calm,Calm,-,N/A,,Clear,0,2013-06-28 05:53:00
1:53 AM,75.0,70.0,84,29.83,10.0,SW,3.5,-,N/A,,Clear,230,2013-06-28 06:53:00
2:53 AM,73.9,70.0,87,29.80,10.0,Calm,Calm,-,N/A,,Clear,0,2013-06-28 07:53:00
3:53 AM,73.9,69.1,85,29.79,10.0,Calm,Calm,-,N/A,,Clear,0,2013-06-28 08:53:00
4:53 AM,73.0,70.0,90,29.79,10.0,SW,4.6,-,N/A,,Clear,230,2013-06-28 09:53:00
5:53 AM,75.0,70.0,84,29.82,10.0,WSW,11.5,20.7,N/A,,Mostly Cloudy,250,2013-06-28 10:53:00
6:53 AM,75.0,72.0,90,29.80,10.0,Calm,Calm,-,N/A,,Mostly Cloudy,0,2013-06-28 11:53:00
7:53 AM,79.0,71.1,77,29.78,10.0,NNW,5.8,-,N/A,,Clear,330,2013-06-28 12:53:00
8:53 AM,84.0,71.1,65,29.77,10.0,NNE,9.2,-,N/A,,Clear,30,2013-06-28 13:53:00
9:53 AM,87.1,66.9,51,29.79,10.0,North,11.5,-,N/A,,Clear,350,2013-06-28 14:53:00
10:53 AM,87.1,66.9,51,29.81,10.0,NNW,8.1,-,N/A,,Partly Cloudy,330,2013-06-28 15:53:00
11:53 AM,89.1,64.0,43,29.80,10.0,WNW,6.9,-,N/A,,Clear,300,2013-06-28 16:53:00
12:53 PM,90.0,63.0,40,29.78,10.0,WNW,10.4,19.6,N/A,,Clear,300,2013-06-28 17:53:00
1:53 PM,91.0,61.0,36,29.75,10.0,WNW,13.8,20.7,N/A,,Clear,300,2013-06-28 18:53:00
2:53 PM,91.9,62.1,37,29.72,10.0,WNW,13.8,-,N/A,,Partly Cloudy,290,2013-06-28 19:53:00
3:53 PM,89.1,62.1,40,29.71,10.0,WNW,12.7,20.7,N/A,,Scattered Clouds,300,2013-06-28 20:53:00
4:53 PM,90.0,64.0,42,29.71,10.0,WNW,15.0,20.7,N/A,,Clear,300,2013-06-28 21:53:00
5:53 PM,90.0,62.1,39,29.69,10.0,NW,16.1,24.2,N/A,,Clear,320,2013-06-28 22:53:00
6:53 PM,88.0,55.9,34,29.69,10.0,NW,16.1,23.0,N/A,,Clear,320,2013-06-28 23:53:00
7:53 PM,84.0,59.0,43,29.71,10.0,NW,5.8,-,N/A,,Clear,310,2013-06-29 00:53:00
8:53 PM,80.1,62.1,54,29.72,10.0,NNW,4.6,-,N/A,,Clear,340,2013-06-29 01:53:00
9:53 PM,75.0,60.1,60,29.73,10.0,WNW,5.8,-,N/A,,Clear,300,2013-06-29 02:53:00
10:53 PM,70.0,62.1,76,29.73,10.0,West,3.5,-,N/A,,Clear,270,2013-06-29 03:53:00
11:53 PM,68.0,61.0,78,29.73,10.0,WSW,6.9,-,N/A,,Clear,240,2013-06-29 04:53:00